Satellite: ISS
Catalog number: 25544
Epoch time:      10050.02914869
Element set:     607
Inclination:      051.6480 deg
RA of node:       117.1846 deg
Eccentricity:    0.0013101
Arg of perigee:   351.0154 deg
Mean anomaly:     073.1045 deg
Mean motion:   15.75446199 rev/day
Decay rate:      1.439e-05 rev/day^2
Epoch rev:           64486
Checksum:              279

Satellite: CO-58
Catalog number: 28895
Epoch time:      10049.13339100
Element set:     515
Inclination:      098.0321 deg
RA of node:       297.4429 deg
Eccentricity:    0.0016914
Arg of perigee:   300.3999 deg
Mean anomaly:     059.5567 deg
Mean motion:   14.59847516 rev/day
Decay rate:       1.51e-06 rev/day^2
Epoch rev:           22961
Checksum:              328

Satellite: FALCON
Catalog number: 30776
Epoch time:      10047.43047901
Element set:    0773
Inclination:      035.4335 deg
RA of node:       057.3322 deg
Eccentricity:    0.0001268
Arg of perigee:   261.0322 deg
Mean anomaly:     099.0251 deg
Mean motion:   15.03470483 rev/day
Decay rate:      1.254e-05 rev/day^2
Epoch rev:           16187
Checksum:              262

Satellite: MAST
Catalog number: 31126
Epoch time:      10044.93507603
Element set:     797
Inclination:      097.9565 deg
RA of node:       093.2203 deg
Eccentricity:    0.0093653
Arg of perigee:   249.1577 deg
Mean anomaly:     109.9756 deg
Mean motion:   14.53552966 rev/day
Decay rate:       1.07e-06 rev/day^2
Epoch rev:           15015
Checksum:              311

Satellite: CAPE1
Catalog number: 31130
Epoch time:      10049.07011307
Element set:     817
Inclination:      097.9554 deg
RA of node:       094.8001 deg
Eccentricity:    0.0101728
Arg of perigee:   243.4249 deg
Mean anomaly:     115.6478 deg
Mean motion:   14.52136222 rev/day
Decay rate:       2.65e-06 rev/day^2
Epoch rev:           15037
Checksum:              264

Satellite: COMPASS
Catalog number: 32787
Epoch time:      10049.32407991
Element set:     599
Inclination:      097.9078 deg
RA of node:       115.6494 deg
Eccentricity:    0.0015078
Arg of perigee:   315.3723 deg
Mean anomaly:     044.6313 deg
Mean motion:   14.81762469 rev/day
Decay rate:       4.50e-06 rev/day^2
Epoch rev:            9789
Checksum:              334

Satellite: AAUSAT2
Catalog number: 32788
Epoch time:      10048.86567794
Element set:     592
Inclination:      097.9113 deg
RA of node:       115.2994 deg
Eccentricity:    0.0014526
Arg of perigee:   319.5856 deg
Mean anomaly:     040.4289 deg
Mean motion:   14.81895465 rev/day
Decay rate:       3.83e-06 rev/day^2
Epoch rev:            9783
Checksum:              355

Satellite: DO-64
Catalog number: 32789
Epoch time:      10049.62607876
Element set:     609
Inclination:      097.9151 deg
RA of node:       116.4007 deg
Eccentricity:    0.0014729
Arg of perigee:   312.9028 deg
Mean anomaly:     047.0967 deg
Mean motion:   14.81973267 rev/day
Decay rate:      1.662e-05 rev/day^2
Epoch rev:            9794
Checksum:              343

Satellite: CO-66
Catalog number: 32791
Epoch time:      10048.72163066
Element set:     589
Inclination:      097.9099 deg
RA of node:       115.0803 deg
Eccentricity:    0.0015532
Arg of perigee:   316.4863 deg
Mean anomaly:     043.5111 deg
Mean motion:   14.81566093 rev/day
Decay rate:       2.12e-06 rev/day^2
Epoch rev:            9776
Checksum:              310

Satellite: RS-30
Catalog number: 32953
Epoch time:      10049.64883551
Element set:     528
Inclination:      082.5003 deg
RA of node:       103.4008 deg
Eccentricity:    0.0018864
Arg of perigee:   005.6542 deg
Mean anomaly:     354.4750 deg
Mean motion:   12.43003433 rev/day
Decay rate:        1.0e-07 rev/day^2
Epoch rev:            7901
Checksum:              257

Satellite: TACSAT-3
Catalog number: 35001
Epoch time:      10048.88124709
Element set:     218
Inclination:      040.4499 deg
RA of node:       210.0830 deg
Eccentricity:    0.0020998
Arg of perigee:   194.7732 deg
Mean anomaly:     165.2471 deg
Mean motion:   15.40345211 rev/day
Decay rate:     1.0021e-04 rev/day^2
Epoch rev:            4222
Checksum:              254

Satellite: PHARMSAT
Catalog number: 35002
Epoch time:      10047.84331917
Element set:    0207
Inclination:      040.4681 deg
RA of node:       214.7966 deg
Eccentricity:    0.0024428
Arg of perigee:   190.4687 deg
Mean anomaly:     169.5622 deg
Mean motion:   15.40984345 rev/day
Decay rate:      8.335e-05 rev/day^2
Epoch rev:           04207
Checksum:              294

Satellite: HAWKSAT1
Catalog number: 35003
Epoch time:      10047.81588178
Element set:    0217
Inclination:      040.4535 deg
RA of node:       212.5732 deg
Eccentricity:    0.0022272
Arg of perigee:   198.7926 deg
Mean anomaly:     161.2059 deg
Mean motion:   15.42690860 rev/day
Decay rate:     1.7116e-04 rev/day^2
Epoch rev:           04210
Checksum:              275

Satellite: CP6
Catalog number: 35004
Epoch time:      10049.80212023
Element set:     210
Inclination:      040.4609 deg
RA of node:       200.3611 deg
Eccentricity:    0.0023764
Arg of perigee:   212.0164 deg
Mean anomaly:     147.9207 deg
Mean motion:   15.43139174 rev/day
Decay rate:     2.0625e-04 rev/day^2
Epoch rev:            4240
Checksum:              227

